Location: Passau
(48.5830°N, 13.4830°E)
Time: 02:49:58
(UTC+01:00)

NOAA 19 - Pass Details

Date: 03 December 2021
Orbit: 841 x 860 km, 99.2° (Epoch: 17 January)

Event Time Altitude Azimuth Distance (km) Brightness Sun altitude
Rises 18:04:37 0° 147° (SSE) 3,385 8.1 -17.8°
Reaches altitude 10° 18:07:00 10° 143° (SE) 2,455 7.4 -18.2°
Maximum altitude 18:12:16 53° 68° (ENE) 1,031 5.2 -19.1°
Drops below altitude 10° 18:17:35 10° 353° (N) 2,478 7.6 -19.9°
Sets 18:20:01 0° 349° (NNW) 3,420 8.4 -20.3°
